This is the latest recevied weather packets stored in our database for station/object OE9FWV-10. If no packets are shown the sender has not sent any weather packets the latest 10 day(s).
| Time | Temp. | Humidity | Pressure | Rain* | Wind** | Luminosity | Snow |
|---|---|---|---|---|---|---|---|
| 1777379237 | 36.67° C | 14% | 1017.7 hPa | - | - | - | - |
| 1777378337 | 36.67° C | 15% | 1017.8 hPa | - | - | - | - |
| 1777377437 | 36.11° C | 15% | 1018 hPa | - | - | - | - |
| 1777376537 | 35.56° C | 16% | 1018.1 hPa | - | - | - | - |
| 1777375637 | 35.56° C | 16% | 1018.3 hPa | - | - | - | - |
| 1777374736 | 34.44° C | 17% | 1018.4 hPa | - | - | - | - |
| 1777373836 | 32.78° C | 18% | 1018.6 hPa | - | - | - | - |
| 1777372936 | 31.67° C | 20% | 1018.8 hPa | - | - | - | - |
| 1777372036 | 29.44° C | 21% | 1019 hPa | - | - | - | - |
| 1777371136 | 28.89° C | 22% | 1019.1 hPa | - | - | - | - |
| 1777370236 | 28.33° C | 22% | 1019.1 hPa | - | - | - | - |
| 1777369336 | 27.78° C | 22% | 1019.2 hPa | - | - | - | - |
| 1777368436 | 27.78° C | 23% | 1019.2 hPa | - | - | - | - |
| 1777367536 | 27.22° C | 23% | 1019.3 hPa | - | - | - | - |
| 1777366635 | 27.22° C | 23% | 1019.2 hPa | - | - | - | - |
| 1777365735 | 26.67° C | 23% | 1019.2 hPa | - | - | - | - |
| 1777364835 | 26.67° C | 24% | 1019.2 hPa | - | - | - | - |
| 1777363935 | 26.11° C | 24% | 1019.1 hPa | - | - | - | - |
| 1777363034 | 25.56° C | 25% | 1019.2 hPa | - | - | - | - |
| 1777362134 | 25.56° C | 25% | 1019.3 hPa | - | - | - | - |
| 1777361234 | 25.56° C | 25% | 1019.3 hPa | - | - | - | - |
| 1777360333 | 25° C | 25% | 1019.4 hPa | - | - | - | - |
| 1777359433 | 25° C | 25% | 1019.4 hPa | - | - | - | - |
| 1777358533 | 24.44° C | 26% | 1019.4 hPa | - | - | - | - |
| 1777357633 | 24.44° C | 26% | 1019.6 hPa | - | - | - | - |
* Rain since midnight (hover to see other rain measurements)
** Current wind speed in m/s (hover to see current wind gust speed)